| time (UTC) | temp F | wind direction | speed MPH | gust MPH | rain 1hr in | rain 24hr in | rain mn in | humidity % | barometer mb |
| 20260507003048 | 57 | 273 | 2.0 | 12.0 | 0.00 | 0.00 | 0.00 | 80 | 1021.0 |
| 20260507001547 | 57 | 261 | 6.0 | 13.0 | 0.00 | 0.00 | 0.00 | 80 | 1021.0 |
| 20260507000046 | 57 | 269 | 6.0 | 11.0 | 0.00 | 0.00 | 0.00 | 79 | 1021.1 |
| 20260506234554 | 57 | 295 | 4.0 | 12.0 | 0.00 | 0.00 | 0.00 | 79 | 1021.1 |
| 20260506233051 | 58 | 255 | 7.0 | 14.0 | 0.00 | 0.00 | 0.00 | 78 | 1021.1 |
| 20260506231553 | 58 | 271 | 6.0 | 13.0 | 0.00 | 0.00 | 0.00 | 76 | 1021.1 |
| 20260506230044 | 58 | 263 | 6.0 | 12.0 | 0.00 | 0.00 | 0.00 | 77 | 1021.1 |
| 20260506224544 | 59 | 271 | 3.0 | 11.0 | 0.00 | 0.00 | 0.00 | 77 | 1021.2 |
| 20260506223043 | 59 | 263 | 8.0 | 15.0 | 0.00 | 0.00 | 0.00 | 77 | 1021.2 |
| 20260506221539 | 58 | 282 | 8.0 | 16.0 | 0.00 | 0.00 | 0.00 | 79 | 1021.4 |
| 20260506220036 | 57 | 271 | 5.0 | 14.0 | 0.00 | 0.00 | 0.00 | 80 | 1021.4 |
| 20260506214534 | 56 | 281 | 7.0 | 14.0 | 0.00 | 0.00 | 0.00 | 80 | 1021.5 |
| 20260506213037 | 56 | 253 | 4.0 | 10.0 | 0.00 | 0.00 | 0.00 | 81 | 1021.5 |
| 20260506211531 | 56 | 300 | 3.0 | 10.0 | 0.00 | 0.00 | 0.00 | 81 | 1021.6 |
| 20260506210034 | 56 | 273 | 5.0 | 12.0 | 0.00 | 0.00 | 0.00 | 80 | 1021.5 |
| 20260506204534 | 56 | 288 | 9.0 | 16.0 | 0.00 | 0.00 | 0.00 | 80 | 1021.5 |
| 20260506203037 | 56 | 265 | 5.0 | 12.0 | 0.00 | 0.00 | 0.00 | 80 | 1021.4 |
| 20260506201531 | 56 | 281 | 3.0 | 13.0 | 0.00 | 0.00 | 0.00 | 82 | 1021.3 |
| 20260506200025 | 56 | 267 | 5.0 | 9.0 | 0.00 | 0.00 | 0.00 | 83 | 1021.2 |
| 20260506194525 | 56 | 307 | 5.0 | 10.0 | 0.00 | 0.00 | 0.00 | 84 | 1021.2 |
| 20260506193023 | 55 | 274 | 2.0 | 7.0 | 0.00 | 0.00 | 0.00 | 84 | 1021.0 |
| 20260506191522 | 55 | 269 | 1.0 | 6.0 | 0.00 | 0.00 | 0.00 | 85 | 1021.0 |
| 20260506190020 | 54 | 242 | 1.0 | 6.0 | 0.00 | 0.00 | 0.00 | 85 | 1021.1 |
| 20260506184519 | 54 | 261 | 3.0 | 9.0 | 0.00 | 0.00 | 0.00 | 86 | 1021.2 |
| 20260506183018 | 54 | 275 | 5.0 | 10.0 | 0.00 | 0.00 | 0.00 | 86 | 1021.2 |
| 20260506181515 | 54 | 300 | 5.0 | 10.0 | 0.00 | 0.00 | 0.00 | 89 | 1020.8 |
| 20260506180017 | 54 | 288 | 4.0 | 9.0 | 0.00 | 0.00 | 0.00 | 89 | 1020.8 |
| 20260506174514 | 53 | 276 | 4.0 | 9.0 | 0.00 | 0.00 | 0.00 | 90 | 1020.9 |
| 20260506173018 | 53 | 284 | 6.0 | 12.0 | 0.00 | 0.00 | 0.00 | 91 | 1020.9 |
| 20260506171514 | 53 | 235 | 5.0 | 11.0 | 0.00 | 0.00 | 0.00 | 92 | 1021.0 |
| 20260506170013 | 53 | 244 | 2.0 | 9.0 | 0.00 | 0.00 | 0.00 | 93 | 1020.8 |
| 20260506164510 | 53 | 242 | 3.0 | 7.0 | 0.00 | 0.00 | 0.00 | 94 | 1020.8 |
| 20260506163011 | 53 | 279 | 1.0 | 5.0 | 0.00 | 0.00 | 0.00 | 95 | 1020.5 |
| 20260506161514 | 53 | 267 | 2.0 | 5.0 | 0.00 | 0.00 | 0.00 | 95 | 1020.3 |
| 20260506160009 | 52 | 290 | 1.0 | 3.0 | 0.00 | 0.00 | 0.00 | 95 | 1020.5 |
| 20260506154507 | 52 | 284 | 2.0 | 6.0 | 0.00 | 0.00 | 0.00 | 95 | 1020.8 |
| 20260506153005 | 52 | 287 | 2.0 | 6.0 | 0.00 | 0.00 | 0.00 | 95 | 1020.7 |
| 20260506151505 | 52 | 246 | 1.0 | 4.0 | 0.00 | 0.00 | 0.00 | 94 | 1020.3 |
| 20260506150005 | 52 | 265 | 2.0 | 8.0 | 0.00 | 0.00 | 0.00 | 94 | 1020.5 |
| 20260506144504 | 52 | 283 | 5.0 | 10.0 | 0.00 | 0.00 | 0.00 | 93 | 1020.6 |
| 20260506143059 | 52 | 288 | 4.0 | 7.0 | 0.00 | 0.00 | 0.00 | 93 | 1020.2 |
| 20260506141558 | 52 | 277 | 2.0 | 6.0 | 0.00 | 0.00 | 0.00 | 93 | 1020.1 |
| 20260506140058 | 53 | 263 | 2.0 | 7.0 | 0.00 | 0.00 | 0.00 | 92 | 1020.2 |
| 20260506134555 | 53 | 240 | 1.0 | 8.0 | 0.00 | 0.00 | 0.00 | 92 | 1019.9 |
| 20260506133054 | 53 | 261 | 4.0 | 9.0 | 0.00 | 0.00 | 0.00 | 91 | 1019.9 |
| 20260506131600 | 53 | 225 | 0.0 | 2.0 | 0.00 | 0.00 | 0.00 | 91 | 1019.7 |
| 20260506130103 | 53 | 225 | 0.0 | 2.0 | 0.00 | 0.00 | 0.00 | 91 | 1019.6 |
| 20260506124557 | 53 | 225 | 0.0 | 5.0 | 0.00 | 0.00 | 0.00 | 91 | 1019.5 |
| 20260506123048 | 53 | 233 | 1.0 | 5.0 | 0.00 | 0.00 | 0.00 | 91 | 1019.4 |
| 20260506121548 | 53 | 226 | 0.0 | 0.0 | 0.00 | 0.00 | 0.00 | 91 | 1019.3 |
| 20260506120046 | 53 | 226 | 0.0 | 2.0 | 0.00 | 0.00 | 0.00 | 91 | 1019.4 |
| 20260506114546 | 53 | 226 | 1.0 | 4.0 | 0.00 | 0.00 | 0.00 | 91 | 1019.0 |
| 20260506113052 | 53 | 229 | 0.0 | 2.0 | 0.00 | 0.00 | 0.00 | 90 | 1019.2 |
| 20260506111544 | 53 | 229 | 3.0 | 5.0 | 0.00 | 0.00 | 0.00 | 90 | 1019.3 |
| 20260506110051 | 53 | 226 | 2.0 | 7.0 | 0.00 | 0.00 | 0.00 | 89 | 1019.0 |
| 20260506104548 | 53 | 209 | 3.0 | 6.0 | 0.00 | 0.00 | 0.00 | 89 | 1019.0 |
| 20260506103047 | 53 | 235 | 2.0 | 5.0 | 0.00 | 0.00 | 0.00 | 88 | 1018.9 |
| 20260506101549 | 53 | 235 | 2.0 | 4.0 | 0.00 | 0.00 | 0.00 | 88 | 1018.7 |
| 20260506100135 | 53 | 231 | 2.0 | 7.0 | 0.00 | 0.00 | 0.00 | 88 | 1018.5 |
| 20260506094533 | 53 | 188 | 2.0 | 6.0 | 0.00 | 0.00 | 0.00 | 89 | 1018.3 |
| 20260506093041 | 53 | 237 | 3.0 | 7.0 | 0.00 | 0.00 | 0.00 | 88 | 1018.3 |
| 20260506091535 | 53 | 202 | 3.0 | 6.0 | 0.00 | 0.00 | 0.00 | 88 | 1018.3 |
| 20260506090030 | 53 | 246 | 4.0 | 10.0 | 0.00 | 0.00 | 0.00 | 89 | 1018.2 |
| 20260506084528 | 53 | 223 | 4.0 | 8.0 | 0.00 | 0.00 | 0.00 | 89 | 1018.1 |
| 20260506083028 | 53 | 227 | 2.0 | 8.0 | 0.00 | 0.00 | 0.00 | 89 | 1018.0 |
| 20260506081532 | 53 | 202 | 1.0 | 5.0 | 0.00 | 0.00 | 0.00 | 89 | 1018.0 |
| 20260506073033 | 54 | 226 | 1.0 | 4.0 | 0.00 | 0.00 | 0.00 | 87 | 1017.7 |
| 20260506071515 | 54 | 234 | 2.0 | 3.0 | 0.00 | 0.00 | 0.00 | 86 | 1017.7 |
| 20260506061509 | 56 | 232 | 4.0 | 8.0 | 0.00 | 0.00 | 0.00 | 84 | 1017.1 |
| 20260506044507 | 58 | 223 | 2.0 | 8.0 | 0.00 | 0.00 | 0.00 | 82 | 1016.4 |
| 20260506043110 | 59 | 231 | 1.0 | 5.0 | 0.00 | 0.00 | 0.00 | 82 | 1016.3 |
| 20260506041604 | 59 | 225 | 0.0 | 3.0 | 0.00 | 0.00 | 0.00 | 81 | 1016.2 |
| 20260506040059 | 59 | 225 | 2.0 | 5.0 | 0.00 | 0.00 | 0.00 | 81 | 1016.1 |
| 20260506034627 | 60 | 242 | 2.0 | 4.0 | 0.00 | 0.00 | 0.00 | 80 | 1015.9 |
| 20260506033103 | 62 | 269 | 0.0 | 1.0 | 0.00 | 0.00 | 0.00 | 77 | 1015.7 |
| 20260506031603 | 62 | 269 | 0.0 | 1.0 | 0.00 | 0.00 | 0.00 | 77 | 1015.6 |
| 20260506030055 | 63 | 269 | 0.0 | 2.0 | 0.00 | 0.00 | 0.00 | 77 | 1015.5 |
| 20260506024556 | 63 | 269 | 1.0 | 4.0 | 0.00 | 0.00 | 0.00 | 76 | 1015.5 |
| 20260506023110 | 63 | 269 | 1.0 | 4.0 | 0.00 | 0.00 | 0.00 | 76 | 1015.5 |
| 20260506021557 | 63 | 272 | 3.0 | 7.0 | 0.00 | 0.00 | 0.00 | 74 | 1015.6 |
| 20260506020054 | 64 | 289 | 2.0 | 7.0 | 0.00 | 0.00 | 0.00 | 74 | 1015.6 |
| 20260506014554 | 64 | 284 | 3.0 | 6.0 | 0.00 | 0.00 | 0.00 | 73 | 1015.5 |
| 20260506013053 | 64 | 308 | 4.0 | 8.0 | 0.00 | 0.00 | 0.00 | 73 | 1015.4 |
| 20260506011614 | 64 | 273 | 3.0 | 7.0 | 0.00 | 0.00 | 0.00 | 74 | 1015.6 |
| 20260506010100 | 64 | 265 | 3.0 | 6.0 | 0.00 | 0.00 | 0.00 | 73 | 1015.7 |
| 20260506004616 | 63 | 291 | 4.0 | 10.0 | 0.00 | 0.00 | 0.00 | 74 | 1015.6 |